Location: Misciano
(43.5000°N, 11.9500°E)
Time: 03:44:48
(UTC+00:00)

X-37B - Pass Details

Date: 13 August 2020
Orbit: 386 x 387 km, 45.0° (Epoch: 18 September)

Event Time Altitude Azimuth Distance (km) Brightness Sun altitude
Rises 20:46:53 0° 284° (WNW) 2,266 5.3 -22.8°
Reaches altitude 10° 20:48:57 10° 284° (WNW) 1,411 4.1 -23.0°
Enters shadow 20:50:44 31° 282° (WNW) 713 2.3 -23.2°
